Location: Andershausen
(51.8462°N, 9.8595°E)
Time: 12:10:02
(UTC+00:00)

Nadezhda 4 Rocket - Pass Details

Date: 18 November 2025
Orbit: 949 x 991 km, 82.9° (Epoch: 10 December)

Event Time Altitude Azimuth Distance (km) Brightness Sun altitude
Rises 16:49:00 0° 351° (N) 3,710 7.0 -12.6°
Reaches altitude 10° 16:51:39 10° 357° (N) 2,752 6.2 -13.0°
Maximum altitude 16:57:47 51° 73° (ENE) 1,221 4.1 -13.9°
Drops below altitude 10° 17:03:48 10° 148° (SSE) 2,707 6.1 -14.8°
Sets 17:06:22 0° 154° (SSE) 3,644 6.9 -15.2°
